Weather History for La Grange, GA

Change the Weather History Date:

Tuesday, February 5, 2013

  Actual Average Record
Temperature  
Mean Temperature 50 °F -  
Max Temperature 68 °F 56 °F 81 °F (1957)
Min Temperature 32 °F 31 °F 13 °F (1966)
Degree Days  
Heating Degree Days 15    
Moisture  
Dew Point 42 °F    
Average Humidity 75    
Maximum Humidity 96    
Minimum Humidity 49    
Precipitation  
Precipitation 0.00 in - - ()
Sea Level Pressure  
Sea Level Pressure 30.01 in    
Wind  
Wind Speed 2 mph (West)    
Max Wind Speed 9 mph    
Max Gust Speed 18 mph    
Visibility 10 miles    
Events      
Averages and records for this station are not official NWS values.
T = Trace of Precipitation, MM = Missing Value Source: NWS Daily Summary

Daily Weather History Graph

Daily Weather History Graph

Search for Another Location

Airport:

Trip Planner

Search our weather history database for the weather conditions in past years. The results will help you decide how hot, cold, wet, or windy it might be!

Date:

Astronomy

Feb. 05, 2013 Rise Set
Actual Time 7:32 AM EST 6:16 PM EST
Civil Twilight 7:06 AM EST 6:42 PM EST
Nautical Twilight 6:37 AM EST 7:11 PM EST
Astronomical Twilight 6:08 AM EST 7:40 PM EST
Moon 3:07 AM EST (2/5) 1:39 PM EST (2/5)
Length of Visible Light 11h 35m
Length of Day
10h 44m
Waning Crescent, 27% of the Moon is Illuminated
Feb 5
Waning Crescent
Feb 10
New
Feb 17
First Quarter
Feb 25
Full
Mar 4
Last Quarter

Hourly Weather History & Observations

Time (EST) Temp. Dew Point Humidity Pressure Visibility Wind Dir Wind Speed Gust Speed Precip Events Conditions
12:15 AM 38.5 °F 33.8 °F 83% 30.01 in 10.0 mi Calm Calm - N/A   Mostly Cloudy
12:35 AM 39.0 °F 34.3 °F 83% 30.01 in 10.0 mi Calm Calm - N/A   Mostly Cloudy
12:55 AM 39.0 °F 33.3 °F 80% 30.01 in 10.0 mi Calm Calm - N/A   Scattered Clouds
1:15 AM 37.4 °F 34.0 °F 87% 30.00 in 10.0 mi Calm Calm - N/A   Clear
1:35 AM 37.2 °F 33.1 °F 85% 30.00 in 10.0 mi Calm Calm - N/A   Clear
1:55 AM 36.3 °F 33.3 °F 89% 30.01 in 10.0 mi Calm Calm - N/A   Clear
2:15 AM 36.7 °F 33.3 °F 87% 30.00 in 10.0 mi Calm Calm - N/A   Clear
2:35 AM 34.9 °F 32.9 °F 92% 29.99 in 10.0 mi Calm Calm - N/A   Clear
2:55 AM 34.9 °F 32.7 °F 92% 29.99 in 10.0 mi Calm Calm - N/A   Clear
3:15 AM 34.2 °F 32.2 °F 92% 29.99 in 10.0 mi Calm Calm - N/A   Clear
3:35 AM 33.8 °F 32.0 °F 93% 29.99 in 10.0 mi Calm Calm - N/A   Clear
3:55 AM 34.0 °F 32.0 °F 92% 29.99 in 10.0 mi Calm Calm - N/A   Clear
4:15 AM 33.1 °F 31.8 °F 95% 29.99 in 10.0 mi Calm Calm - N/A   Clear
4:35 AM 33.4 °F 32.0 °F 94% 29.99 in 10.0 mi Calm Calm - N/A   Clear
4:55 AM 33.6 °F 32.0 °F 94% 29.99 in 10.0 mi Calm Calm - N/A   Clear
5:15 AM 32.9 °F 31.8 °F 96% 29.99 in 10.0 mi Calm Calm - N/A   Scattered Clouds
5:35 AM 33.1 °F 32.0 °F 96% 29.99 in 10.0 mi Calm Calm - N/A   Scattered Clouds
5:55 AM 33.1 °F 32.0 °F 96% 29.99 in 10.0 mi Calm Calm - N/A   Mostly Cloudy
6:15 AM 34.7 °F 33.3 °F 94% 29.99 in 10.0 mi Calm Calm - N/A   Overcast
6:35 AM 35.6 °F 33.4 °F 92% 30.00 in 10.0 mi Calm Calm - N/A   Overcast
6:55 AM 36.9 °F 34.3 °F 91% 30.01 in 10.0 mi Calm Calm - N/A   Overcast
7:15 AM 37.8 °F 34.9 °F 89% 30.01 in 10.0 mi Calm Calm - N/A   Overcast
7:35 AM 38.3 °F 35.2 °F 89% 30.02 in 10.0 mi Calm Calm - N/A   Overcast
7:55 AM 39.2 °F 36.0 °F 88% 30.02 in 10.0 mi Calm Calm - N/A   Overcast
8:15 AM 39.6 °F 36.5 °F 89% 30.03 in 10.0 mi Calm Calm - N/A   Overcast
8:35 AM 40.5 °F 36.9 °F 87% 30.03 in 10.0 mi Calm Calm - N/A   Scattered Clouds
8:55 AM 43.3 °F 37.8 °F 81% 30.04 in 10.0 mi Calm Calm - N/A   Clear
9:15 AM 46.2 °F 39.4 °F 77% 30.04 in 10.0 mi Calm Calm - N/A   Clear
9:35 AM 51.8 °F 42.8 °F 71% 30.04 in 10.0 mi SW 4.6 mph - N/A   Clear
9:55 AM 54.3 °F 44.4 °F 69% 30.05 in 10.0 mi WSW 4.6 mph - N/A   Clear
10:15 AM 55.8 °F 45.0 °F 67% 30.05 in 10.0 mi SW 4.6 mph - N/A   Clear
10:35 AM 57.9 °F 46.6 °F 66% 30.05 in 10.0 mi WSW 8.1 mph - N/A   Clear
10:55 AM 59.0 °F 47.1 °F 65% 30.05 in 10.0 mi WSW 8.1 mph - N/A   Clear
11:15 AM 61.5 °F 47.8 °F 61% 30.05 in 10.0 mi West 4.6 mph - N/A   Clear
11:35 AM 62.6 °F 48.4 °F 60% 30.05 in 10.0 mi WSW 5.8 mph - N/A   Clear
11:55 AM 63.1 °F 48.7 °F 59% 30.04 in 10.0 mi WNW 5.8 mph 18.4 mph N/A   Clear
12:15 PM 63.1 °F 48.7 °F 59% 30.04 in 10.0 mi West 8.1 mph - N/A   Clear
12:35 PM 66.2 °F 49.6 °F 55% 30.03 in 10.0 mi West 9.2 mph - N/A   Scattered Clouds
12:55 PM 66.2 °F 49.3 °F 54% 30.02 in 10.0 mi West 8.1 mph - N/A   Overcast
1:15 PM 68.4 °F 49.6 °F 51% 30.01 in 10.0 mi West 8.1 mph - N/A   Overcast
1:35 PM 66.2 °F 49.1 °F 54% 30.00 in 10.0 mi WSW 9.2 mph - N/A   Overcast
1:55 PM 66.9 °F 48.7 °F 52% 29.99 in 10.0 mi West 6.9 mph - N/A   Overcast
2:15 PM 67.1 °F 48.9 °F 52% 29.99 in 10.0 mi West 8.1 mph - N/A   Overcast
2:35 PM 67.3 °F 48.4 °F 51% 29.99 in 10.0 mi West 9.2 mph - N/A   Overcast
2:55 PM 67.1 °F 48.2 °F 51% 29.98 in 10.0 mi SW 8.1 mph - N/A   Overcast
3:15 PM 67.1 °F 48.0 °F 50% 29.98 in 10.0 mi SW 4.6 mph - N/A   Overcast
3:35 PM 66.7 °F 47.8 °F 51% 29.98 in 10.0 mi West 8.1 mph - N/A   Overcast
3:55 PM 67.1 °F 47.5 °F 49% 29.98 in 10.0 mi WNW 8.1 mph - N/A   Overcast
4:15 PM 66.2 °F 46.9 °F 50% 29.98 in 10.0 mi WNW 8.1 mph - N/A   Overcast
4:35 PM 66.2 °F 47.3 °F 51% 29.98 in 10.0 mi West 6.9 mph - N/A   Overcast
4:55 PM 66.6 °F 46.9 °F 49% 29.98 in 10.0 mi WNW 4.6 mph - N/A   Overcast
5:15 PM 66.6 °F 47.3 °F 50% 29.97 in 10.0 mi West 4.6 mph - N/A   Scattered Clouds
5:35 PM 65.7 °F 47.7 °F 52% 29.98 in 10.0 mi West 5.8 mph - N/A   Mostly Cloudy
5:55 PM 65.7 °F 47.8 °F 53% 29.97 in 10.0 mi West 4.6 mph - N/A   Overcast
6:15 PM 64.4 °F 48.2 °F 56% 29.97 in 10.0 mi Calm Calm - N/A   Overcast
6:35 PM 62.2 °F 48.9 °F 62% 29.98 in 10.0 mi Calm Calm - N/A   Overcast
6:55 PM 61.2 °F 48.6 °F 63% 29.98 in 10.0 mi Calm Calm - N/A   Overcast
7:15 PM 59.0 °F 48.2 °F 67% 29.99 in 10.0 mi Calm Calm - N/A   Overcast
7:35 PM 57.7 °F 49.1 °F 73% 29.99 in 10.0 mi Calm Calm - N/A   Mostly Cloudy
7:55 PM 52.9 °F 46.8 °F 80% 30.00 in 10.0 mi Calm Calm - N/A   Scattered Clouds
8:15 PM 52.9 °F 47.7 °F 82% 30.00 in 10.0 mi Calm Calm - N/A   Scattered Clouds
8:35 PM 52.0 °F 47.7 °F 85% 30.01 in 10.0 mi Calm Calm - N/A   Scattered Clouds
8:55 PM 50.5 °F 46.8 °F 87% 30.02 in 10.0 mi Calm Calm - N/A   Mostly Cloudy
9:15 PM 50.0 °F 46.4 °F 87% 30.03 in 10.0 mi Calm Calm - N/A   Scattered Clouds
9:35 PM 49.6 °F 46.2 °F 88% 30.03 in 10.0 mi Calm Calm - N/A   Mostly Cloudy
9:55 PM 49.3 °F 46.6 °F 90% 30.05 in 10.0 mi Calm Calm - N/A   Overcast
10:15 PM 50.7 °F 47.3 °F 88% 30.05 in 10.0 mi Calm Calm - N/A   Overcast
10:35 PM 50.4 °F 47.3 °F 89% 30.04 in 10.0 mi Calm Calm - N/A   Overcast
10:55 PM 50.2 °F 47.3 °F 90% 30.06 in 10.0 mi Calm Calm - N/A   Overcast
11:15 PM 50.7 °F 47.5 °F 89% 30.05 in 10.0 mi Calm Calm - N/A   Overcast
11:35 PM 49.5 °F 47.3 °F 92% 30.05 in 10.0 mi Calm Calm - N/A   Mostly Cloudy
11:55 PM 48.6 °F 47.1 °F 95% 30.04 in 10.0 mi Calm Calm - N/A   Scattered Clouds